sat.trackr.live / text

‹ back to catalog

STARLINK-4096

NORAD 53160 · 2022-083AE

PAYLOAD ACTIVE UNKNOWN

§ Identity

Operator
Country
US
Launch date
2022-07-17
Launch site
AFETR
Launch vehicle
Mass (kg)
RCS (m²)

Purposes: comms

External: N2YO · Heavens-Above · Gunter

§ Orbital elements

Epoch: 2026-09-20T00:21:35.339040Z

Period
93.85 min
Inclination
53.1626°
Eccentricity
0.0001072
Mean motion
15.34394304 rev/d
Perigee alt
462.0 km
Apogee alt
463.5 km
Semi-major
6,840.9 km
B*
4.5703e-5
RAAN
5.6439°
Arg perigee
74.5526°
Mean anomaly
285.5595°
Rev number
23,077

§ Raw data

STARLINK-40961 53160U 22083AE  26263.01499235  .00001168  00000+0  45703-4 0  99902 53160  53.1626   5.6439 0001072  74.5526 285.5595 15.34394304230770

JSON: /api/v1/satellites/53160 · /tle

For live sub-satellite position, see the globe view (requires WebGL).

§ Visibility from observer

Set your observer location to see the next 7 days of passes ≥ 10°. The values pass through the URL so the page stays shareable.

No JS? Fill the form by hand. The geolocation button needs JavaScript.